• In Hungary
  • List of Countries
  • For 7 days
  • Water Temperature
  • Satellite Maps
  • Weather Map
  • News
  • Weather Widgets
  • user-avatar
    Login

    Hourly Weather Kolwezi

    Today, 25 November, Saturday

    Time Temperature Precipitation Wind Pressure Humidity
    00:00 +16°C° 0.8 mm 0 mps 639 mmHg 96%
    01:00 +16°C° 0.8 mm 0 mps 639 mmHg 96%
    02:00 +16°C° 0 mm 0 mps 639 mmHg 97%
    03:00 +16°C° 0.3 mm 0 mps 638 mmHg 97%
    04:00 +16°C° 0.3 mm 0 mps 638 mmHg 97%
    05:00 +16°C° 0.3 mm 0 mps 638 mmHg 97%
    06:00 +17°C° 0 mm 0 mps 639 mmHg 94%
    07:00 +18°C° 0 mm 0 mps 639 mmHg 91%
    08:00 +19°C° 0 mm 0 mps 640 mmHg 88%
    09:00 +21°C° 0.5 mm 0 mps 640 mmHg 80%
    10:00 +24°C° 0.5 mm 0 mps 641 mmHg 72%
    11:00 +26°C° 0.5 mm 0 mps 641 mmHg 64%
    12:00 +26°C° 0.8 mm 0 mps 640 mmHg 63%
    13:00 +26°C° 0.8 mm 0 mps 640 mmHg 62%
    14:00 +26°C° 0.8 mm 0 mps 639 mmHg 60%
    15:00 +27°C° 1.1 mm 1 mps 638 mmHg 68%
    16:00 +25°C° 1.1 mm 1 mps 638 mmHg 76%
    17:00 +24°C° 1.1 mm 1 mps 637 mmHg 83%
    18:00 +23°C° 0.4 mm 1 mps 637 mmHg 86%
    19:00 +21°C° 0.4 mm 1 mps 637 mmHg 89%
    20:00 +20°C° 0.4 mm 1 mps 637 mmHg 91%
    21:00 +19°C° 0.2 mm 1 mps 638 mmHg 92%
    22:00 +19°C° 0.2 mm 1 mps 638 mmHg 93%
    23:00 +19°C° 0.2 mm 1 mps 639 mmHg 94%

    Tomorrow, 26 November, Sunday

    Time Temperature Precipitation Wind Pressure Humidity
    00:00 +19°C° 0.1 mm 1 mps 638 mmHg 95%
    01:00 +18°C° 0.1 mm 1 mps 638 mmHg 97%
    02:00 +18°C° 0.1 mm 1 mps 638 mmHg 98%
    03:00 +17°C° 0.6 mm 2 mps 638 mmHg 98%
    04:00 +17°C° 0.6 mm 2 mps 638 mmHg 98%
    05:00 +17°C° 0.6 mm 2 mps 638 mmHg 98%
    06:00 +18°C° 0.7 mm 2 mps 639 mmHg 97%
    07:00 +18°C° 0.7 mm 2 mps 639 mmHg 96%
    08:00 +18°C° 0.7 mm 2 mps 640 mmHg 95%
    09:00 +19°C° 0.7 mm 2 mps 640 mmHg 93%
    10:00 +20°C° 0.7 mm 2 mps 640 mmHg 91%
    11:00 +20°C° 0.7 mm 2 mps 640 mmHg 89%
    12:00 +20°C° 0.6 mm 2 mps 640 mmHg 88%
    13:00 +21°C° 0.6 mm 2 mps 639 mmHg 87%
    14:00 +21°C° 0.6 mm 2 mps 639 mmHg 86%
    15:00 +21°C° 0.3 mm 2 mps 639 mmHg 85%
    16:00 +21°C° 0.3 mm 2 mps 639 mmHg 85%
    17:00 +21°C° 0.3 mm 2 mps 638 mmHg 84%
    18:00 +21°C° 0.7 mm 1 mps 639 mmHg 88%
    19:00 +20°C° 0.7 mm 1 mps 639 mmHg 93%
    20:00 +19°C° 0.7 mm 1 mps 639 mmHg 97%
    21:00 +19°C° 0.4 mm 1 mps 640 mmHg 97%
    22:00 +18°C° 0.4 mm 1 mps 640 mmHg 97%
    23:00 +18°C° 0.4 mm 1 mps 640 mmHg 97%

    Day after tomorrow, 27 November, Monday

    Time Temperature Precipitation Wind Pressure Humidity
    00:00 +18°C° 0.1 mm 1 mps 640 mmHg 98%
    01:00 +18°C° 0.1 mm 1 mps 639 mmHg 98%
    02:00 +18°C° 0.1 mm 1 mps 639 mmHg 98%
    03:00 +18°C° 0.1 mm 1 mps 639 mmHg 98%
    04:00 +18°C° 0.1 mm 1 mps 639 mmHg 98%
    05:00 +18°C° 0.1 mm 1 mps 639 mmHg 98%
    06:00 +18°C° 0.1 mm 1 mps 639 mmHg 96%
    07:00 +19°C° 0.1 mm 1 mps 640 mmHg 95%
    08:00 +20°C° 0.1 mm 1 mps 641 mmHg 93%
    09:00 +20°C° 0.3 mm 2 mps 641 mmHg 87%
    10:00 +21°C° 0.3 mm 2 mps 641 mmHg 82%
    11:00 +24°C° 0.3 mm 2 mps 642 mmHg 77%
    12:00 +23°C° 1 mm 2 mps 641 mmHg 79%
    13:00 +23°C° 1 mm 2 mps 640 mmHg 82%
    14:00 +23°C° 1 mm 2 mps 639 mmHg 84%
    15:00 +23°C° 0.9 mm 2 mps 639 mmHg 86%
    16:00 +23°C° 0.9 mm 2 mps 639 mmHg 87%
    17:00 +22°C° 0.9 mm 1 mps 638 mmHg 88%
    18:00 +21°C° 0.9 mm 1 mps 639 mmHg 90%
    19:00 +20°C° 0.9 mm 1 mps 639 mmHg 92%
    20:00 +17°C° 0.9 mm 0 mps 639 mmHg 94%
    21:00 +17°C° 0 mm 0 mps 640 mmHg 95%
    22:00 +17°C° 0 mm 0 mps 640 mmHg 95%
    23:00 +16°C° 0 mm 0 mps 640 mmHg 95%

    28 November, Tuesday

    Time Temperature Precipitation Wind Pressure Humidity
    00:00 +16°C° 0.1 mm 0 mps 639 mmHg 96%
    01:00 +16°C° 0.1 mm 0 mps 639 mmHg 96%
    02:00 +16°C° 0.1 mm 0 mps 638 mmHg 96%
    03:00 +16°C° 0.1 mm 0 mps 638 mmHg 96%
    04:00 +16°C° 0.1 mm 0 mps 639 mmHg 96%
    05:00 +16°C° 0.1 mm 0 mps 639 mmHg 96%
    06:00 +16°C° 0.2 mm 0 mps 639 mmHg 95%
    07:00 +17°C° 0.2 mm 0 mps 640 mmHg 94%
    08:00 +18°C° 0.2 mm 0 mps 641 mmHg 92%
    09:00 +20°C° 0.4 mm 1 mps 641 mmHg 88%
    10:00 +21°C° 0.4 mm 1 mps 641 mmHg 84%
    11:00 +22°C° 0.4 mm 1 mps 641 mmHg 80%
    12:00 +24°C° 0 mm 1 mps 640 mmHg 71%
    13:00 +26°C° 0 mm 1 mps 640 mmHg 63%
    14:00 +26°C° 0 mm 0 mps 640 mmHg 54%
    15:00 +27°C° 0 mm 1 mps 639 mmHg 57%
    16:00 +26°C° 0 mm 1 mps 639 mmHg 60%
    17:00 +25°C° 0 mm 1 mps 638 mmHg 63%
    18:00 +24°C° 0.1 mm 1 mps 638 mmHg 69%
    19:00 +22°C° 0.1 mm 1 mps 638 mmHg 74%
    20:00 +18°C° 0.1 mm 0 mps 639 mmHg 80%
    21:00 +18°C° 0.1 mm 0 mps 639 mmHg 82%
    22:00 +17°C° 0.1 mm 0 mps 639 mmHg 84%
    23:00 +17°C° 0.1 mm 0 mps 639 mmHg 86%

    29 November, Wednesday

    Time Temperature Precipitation Wind Pressure Humidity
    00:00 +17°C° 0.1 mm 0 mps 639 mmHg 88%
    01:00 +16°C° 0.1 mm 0 mps 638 mmHg 90%
    02:00 +16°C° 0.1 mm 0 mps 638 mmHg 92%
    03:00 +16°C° 0.1 mm 0 mps 638 mmHg 93%
    04:00 +15°C° 0.1 mm 0 mps 638 mmHg 94%
    05:00 +15°C° 0.1 mm 0 mps 638 mmHg 95%
    06:00 +17°C° 0 mm 0 mps 639 mmHg 92%
    07:00 +18°C° 0 mm 0 mps 640 mmHg 88%
    08:00 +20°C° 0 mm 0 mps 641 mmHg 84%
    09:00 +21°C° 1.1 mm 0 mps 641 mmHg 82%
    10:00 +22°C° 1.1 mm 0 mps 641 mmHg 81%
    11:00 +24°C° 1.1 mm 1 mps 640 mmHg 79%
    12:00 +25°C° 1.3 mm 1 mps 640 mmHg 78%
    13:00 +25°C° 1.3 mm 1 mps 639 mmHg 77%
    14:00 +25°C° 1.3 mm 1 mps 638 mmHg 77%
    15:00 +24°C° 1.5 mm 1 mps 638 mmHg 80%
    16:00 +24°C° 1.5 mm 1 mps 638 mmHg 84%
    17:00 +23°C° 1.5 mm 1 mps 637 mmHg 87%
    18:00 +22°C° 1 mm 1 mps 638 mmHg 90%
    19:00 +20°C° 1 mm 1 mps 638 mmHg 92%
    20:00 +19°C° 1 mm 1 mps 638 mmHg 94%
    21:00 +19°C° 0.3 mm 1 mps 639 mmHg 95%
    22:00 +19°C° 0.3 mm 1 mps 639 mmHg 95%
    23:00 +19°C° 0.3 mm 1 mps 639 mmHg 96%

    30 November, Thursday

    Time Temperature Precipitation Wind Pressure Humidity
    00:00 +19°C° 0.2 mm 1 mps 639 mmHg 96%
    01:00 +18°C° 0.2 mm 1 mps 638 mmHg 96%
    02:00 +18°C° 0.2 mm 1 mps 638 mmHg 97%
    03:00 +18°C° 0.2 mm 1 mps 638 mmHg 97%
    04:00 +18°C° 0.2 mm 1 mps 638 mmHg 97%
    05:00 +18°C° 0.2 mm 1 mps 638 mmHg 98%
    06:00 +18°C° 0.8 mm 1 mps 639 mmHg 98%
    07:00 +18°C° 0.8 mm 1 mps 640 mmHg 97%
    08:00 +19°C° 0.8 mm 1 mps 640 mmHg 97%
    09:00 +19°C° 1.1 mm 1 mps 640 mmHg 96%
    10:00 +19°C° 1.1 mm 1 mps 640 mmHg 95%
    11:00 +20°C° 1.1 mm 1 mps 640 mmHg 94%
    12:00 +21°C° 0.2 mm 1 mps 640 mmHg 86%
    13:00 +21°C° 0.2 mm 2 mps 639 mmHg 79%
    14:00 +24°C° 0.2 mm 2 mps 639 mmHg 72%
    15:00 +23°C° 0.1 mm 2 mps 639 mmHg 74%
    16:00 +23°C° 0.1 mm 2 mps 638 mmHg 77%
    17:00 +23°C° 0.1 mm 1 mps 638 mmHg 80%
    18:00 +21°C° 0.2 mm 1 mps 638 mmHg 85%
    19:00 +20°C° 0.2 mm 1 mps 638 mmHg 91%
    20:00 +19°C° 0.2 mm 1 mps 638 mmHg 96%
    21:00 +18°C° 0.6 mm 1 mps 638 mmHg 96%
    22:00 +18°C° 0.6 mm 1 mps 639 mmHg 97%
    23:00 +18°C° 0.6 mm 1 mps 639 mmHg 98%
    Show more